[[{"header":{"parameterUnit":"m.s-1","parameterCategory":1,"la1":30.2992,"la2":30.254,"lo1":-89.0895,"lo2":-89.0443,"dy":0.0025,"dx":0.0025,"nx":19,"ny":19,"refTime":"2026-03-25T09:00:00:Z","depth":0,"parameterNumber":2,"parameterNumberName":"U-component_of_WINDS"},"data":[0,0,0,-3.633,-3.6331,-3.6367,-3.6367,-3.6444,-3.6445,0,0,0,0,0,0,0,0,0,0,0,-3.6338,-3.6339,-3.633,-3.6331,-3.6367,-3.6367,-3.6444,-3.6445,0,0,0,0,0,0,0,0,0,0,0,-3.6337,-3.6339,-3.634,-3.6331,-3.6367,-3.6367,-3.6444,-3.6406,0,0,0,0,0,0,0,0,0,0,-3.6365,-3.639,-3.6338,-3.634,-3.6332,-3.6367,-3.6367,-3.6403,-3.6408,-3.6441,0,-3.6475,0,-3.6462,-3.6452,-3.6453,0,0,0,-3.6317,-3.6387,-3.638,-3.634,-3.6332,-3.6367,-3.6347,-3.6406,-3.6411,-3.6448,-3.6476,-3.6478,-3.6463,-3.6453,-3.6454,-3.6691,-3.6693,0,0,-3.6315,-3.6354,-3.6376,-3.6384,-3.6381,-3.6346,-3.6348,-3.6408,-3.6442,-3.6476,-3.6479,-3.6464,-3.6454,-3.6455,-3.6689,-3.6692,0,0,0,-3.6319,-3.6353,-3.6344,-3.6382,-3.6386,-3.6347,-3.635,-3.6439,-3.6433,-3.648,-3.6465,-3.6454,-3.6456,-3.6687,-3.669,-3.6814,0,0,0,-3.6317,-3.6355,-3.6344,-3.6368,-3.6386,-3.6413,-3.638,-3.6429,-3.6434,-3.6465,-3.6454,-3.6457,-3.6685,-3.6689,-3.6806,-3.6866,0,0,0,-3.6329,-3.6356,-3.6368,-3.637,-3.6387,-3.6411,-3.6408,-3.6429,-3.6426,-3.6453,-3.6457,-3.6684,-3.6688,-3.68,-3.6854,-3.6939,0,0,0,-3.6353,-3.6477,-3.6371,-3.6504,-3.6387,-3.6488,-3.6407,-3.648,-3.6518,-3.6455,-3.6686,-3.669,-3.6797,-3.6847,-3.6932,-3.7016,-3.7055,0,0,-3.6531,-3.65,-3.6576,-3.6481,-3.6612,-3.648,-3.6628,-3.6625,-3.6593,-3.666,-3.6666,-3.6809,-3.6853,-3.6938,-3.7264,-3.7295,0,0,0,-3.6645,-3.67,-3.6726,-3.6764,-3.6767,-3.6773,-3.6744,-3.6744,-3.68,-3.6635,-3.6862,-3.6887,-3.6935,-3.6973,-3.7,-3.7038,-3.671,-3.6709,-3.6709,-3.6952,-3.6904,-3.7027,-3.6984,-3.7023,-3.6993,-3.7019,-3.7013,-3.6953,-3.7009,-3.7027,-3.7231,-3.7278,-3.7297,-3.7338,-3.7069,-3.707,-3.707,-3.7071,-3.7208,-3.7278,-3.7198,-3.7287,-3.7237,-3.7311,-3.7289,-3.7244,-3.7306,-3.7212,-3.7252,-3.7152,-3.7333,-3.7366,-3.7079,-3.7078,-3.7077,-3.7076,-3.7075,-3.7402,-3.7427,-3.7425,-3.7477,-3.7522,-3.7475,-3.7539,-3.7491,-3.7446,-3.7486,-3.75,-3.7498,-3.7489,-3.7497,-3.7497,-3.7498,-3.7499,-3.7499,-3.75,-3.7603,-3.7597,-3.7657,-3.7672,-3.7691,-3.771,-3.7683,-3.7701,-3.7707,-3.7667,-3.7667,-3.7602,-3.7361,-3.73,-3.751,-3.7508,-3.7507,-3.7506,-3.7505,-3.7877,-3.7808,-3.79,-3.792,-3.7934,-3.7983,-3.7922,-3.7962,-3.7969,-3.8003,-3.793,-3.776,-3.7724,-3.7702,-3.7652,-3.794,-3.794,-3.794,-3.794,-3.8039,-3.8018,-3.8102,-3.8136,-3.8164,-3.8119,-3.8226,-3.8208,-3.8178,-3.818,-3.8132,-3.8062,-3.8042,-3.8018,-3.7989,-3.7941,-3.8297,-3.8297,-3.8298,-3.8205,-3.8184,-3.8284,-3.8254,-3.8263,-3.8271,-3.837,-3.8413,-3.8365,-3.8311,-3.8181,-3.8166,-3.8051,-3.8017,-3.7958,-3.7915,-3.7825,0,0]},{"header":{"parameterUnit":"m.s-1","parameterCategory":1,"la1":30.2992,"la2":30.254,"lo1":-89.0895,"lo2":-89.0443,"dy":0.0025,"dx":0.0025,"nx":19,"ny":19,"refTime":"2026-03-25T09:00:00:Z","depth":0,"parameterNumber":3,"parameterNumberName":"V-component_of_WINDS"},"data":[0,0,0,2.4855,2.4856,2.4907,2.4907,2.4958,2.4958,0,0,0,0,0,0,0,0,0,0,0,2.4833,2.4834,2.4855,2.4856,2.4906,2.4907,2.4958,2.4958,0,0,0,0,0,0,0,0,0,0,0,2.4833,2.4833,2.4834,2.4856,2.4906,2.4907,2.4958,2.4924,0,0,0,0,0,0,0,0,0,0,2.4877,2.4851,2.4833,2.4834,2.4856,2.4906,2.4907,2.4922,2.4926,2.493,0,2.4933,0,2.4946,2.4961,2.4961,0,0,0,2.486,2.4848,2.4868,2.4834,2.4857,2.4906,2.4885,2.4925,2.4928,2.4934,2.4934,2.4936,2.4947,2.4961,2.4961,2.4973,2.4973,0,0,2.4857,2.4838,2.4865,2.487,2.4864,2.4883,2.4886,2.4927,2.4924,2.4934,2.4937,2.4948,2.4961,2.4962,2.4973,2.4973,0,0,0,2.4847,2.4836,2.4855,2.4868,2.4878,2.4885,2.4888,2.4923,2.4931,2.4938,2.4949,2.4962,2.4962,2.4973,2.4973,2.4948,0,0,0,2.4845,2.483,2.4854,2.4843,2.4877,2.4901,2.4882,2.4928,2.4933,2.4948,2.4962,2.4962,2.4974,2.4973,2.4949,2.4939,0,0,0,2.4832,2.4829,2.4834,2.4842,2.4863,2.4901,2.4912,2.4929,2.4939,2.4961,2.4963,2.4974,2.4973,2.495,2.4941,2.4937,0,0,0,2.4812,2.4809,2.4833,2.4834,2.4862,2.4886,2.4912,2.493,2.4945,2.4962,2.4974,2.4973,2.4951,2.4942,2.4938,2.493,2.4925,0,0,2.4798,2.4807,2.4809,2.4832,2.4847,2.488,2.4891,2.4922,2.494,2.496,2.4961,2.4949,2.4941,2.4937,2.4906,2.4902,0,0,0,2.4798,2.4799,2.4807,2.4823,2.4848,2.4869,2.4901,2.4913,2.4932,2.4948,2.4947,2.4943,2.4941,2.4938,2.4935,2.4935,2.4971,2.4971,2.4971,2.4749,2.4775,2.478,2.4812,2.4827,2.4861,2.4875,2.4896,2.4916,2.4916,2.4921,2.49,2.4896,2.4893,2.4893,2.492,2.492,2.492,2.492,2.4729,2.4735,2.4765,2.4781,2.4807,2.482,2.4853,2.4867,2.4882,2.4897,2.4897,2.4911,2.4888,2.4889,2.4918,2.4918,2.4919,2.4919,2.4919,2.4699,2.4707,2.4723,2.4749,2.4766,2.4798,2.4812,2.4835,2.4857,2.4857,2.4866,2.4867,2.4869,2.486,2.486,2.486,2.486,2.486,2.486,2.4662,2.4681,2.4691,2.4719,2.4733,2.4753,2.4789,2.4802,2.4823,2.4839,2.4839,2.4858,2.4882,2.4887,2.4859,2.4859,2.4859,2.4859,2.4859,2.4631,2.4642,2.4657,2.4671,2.4707,2.4722,2.4753,2.4778,2.4793,2.4798,2.4819,2.4833,2.4843,2.4846,2.485,2.4814,2.4814,2.4814,2.4814,2.4605,2.4614,2.4635,2.4656,2.4679,2.4709,2.4724,2.4751,2.4781,2.4791,2.48,2.4808,2.481,2.4819,2.4822,2.4826,2.4786,2.4786,2.4786,2.4588,2.46,2.4608,2.464,2.467,2.4695,2.471,2.4731,2.4767,2.4785,2.48,2.4801,2.4814,2.4817,2.4834,2.4839,2.4847,0,0]}]]